Probability
0 0 0 0 0 0 0 0 0 0 0 0 0 0 0 0 0 0 0 0 0 0 0 0 0 0 0 0 0 0 0 0 0 0 0 0 0 0
0 0 0 0 0 0 0 0 0 0 0 0 0 0 0 0 0 0 0 0 0 0 0 0 0 0 0 0 0 0 0 0 0 0 0 0 0 0
0 0 0 0 0 0 0 0 0 0 0 0 0 0 0 0 0 0 0 0 0 0 0 0 0 0 0 0 0 0 0 0 0 0 0 0 0 0
0 0 0 0 0 0 0 0 0 0 0 0 0 0 0 0 0 0 0 0 0 0 0 0 0 0 0 0 0 0 0 0 0 0 0 0 0 0
0 0 0 0 0 0 0 0 0 0 0 0 0 0 0 0 0 0 0 0 0 0 0 0 0 0 0 0 0 0 0 0 0 0 0 0 0 0
0 0 0 0 0 0 0 0 0 0 0 0 0 0 0 0 0 0 0 0 0 0 0 0 0 0 0 0 0 0 0 0 0 0 0 0 0 0
0 0 0 0 0 0 0 0 0 0 0 0 0 0 0 0 0 0 0 0 0 0 0 0 0 0 0 0 0 0 0 0 0 0 0 0 0 0
0 0 0 0 0 0 0 0 0 0 0 0 0 0 0 0 0 0 0 0 0 0 0 0 0 0 0 0 0 0 0 0 0 0 0 0 0 0
0 0 0 0 0 0 0 0 0 0 0 0 0 0 0 0 0 0 0 0 0 0 0 0 0 0 0 0 0 0 0 0 0 0 0 0 0 0
0 0 0 0 0 0 0 0 0 0 0 0 0 0 0 0 0 0 0 0 0 0 0 0 0 0 0 0 0 0 0 0 0 0 0 0 0 0
0 0 0 0 0 0 0 0 0 0 0 0 0 0 0 0 0 0 0 0 0 0 0 0 0 0 0 0 0 0 0 0 0 0 0 0 0 0
0 0 0 0 0 0 0 0 0 0 0 0 0 0 0 0 0 0 0 0 0 0 0 0 0 0 0 0 0 0 0 0 0 0 0 0 0 0
0 0 0 0 0 0 0 0 0 0 0 0 0 0 0 0 0 0 0 0 0 0 0 0 0 0 0 0 0 0 0 0 0 0 0 0 0 0
0 0 0 0 0 0 0 0 0 0 0 0 0 0 0 0 0 0 0 0 0 0 0 0 0 0 0 0 0 0 0 0 0 0 0 0 0 0
0 0 0 0 0 0 0 0 0 0 0 0 0 0 0 0 0 0 0 0 0 0 0 0 0 0 0 0 0 0 0 0 0 0 0 0 0 0
0 0 0 0 0 0 0 0 0 0 0 0 0 0 0 0 0 0 0 0 0 0 0 0 0 0 0 0 0 0 0 0 0 0 0 0 0 0
0 0 0 0 0 0 0 0 0 0 0 0 0 0 0 0 0 0 0 0 0 0 0 0 0 0 0 0 0 0 0 0 0 0 0 0 0 0
0 0 0 0 0 0 0 0 0 0 0 0 0 0 0 0 0 0 0 0 0 0 0 0 0 0 0 0 0 0 0 0 0 0 0 0 0 0
0 0 0 0 0 0 0 0 0 0 0 0 0 0 0 0 0 0 0 0 0 0 0 0 0 0 0 0 0 0 0 0 0 0 0 0 0 0
0 0 0 0 0 0 0 0 0 0 0 0 0 0 0 0 0 0 0 0 0 0 0 0 0 0 0 0 0 0 0 0 0 0 0 0 0 0
0 0 0 0 0 0 0 0 0 0 0 0 0 0 0 0 0 0 0 0 0 0 0 0 0 0 0 0 0 0 0 0 0 0 0 0 0 0
0 0 0 0 0 0 0 0 0 0 0 0 0 0 0 0 0 0 0 0 0 0 0 0 0 0 0 0 0 0 0 0 0 0 0 0 0 0
0 0 0 0 0 0 0 0 0 0 0 0 0 0 0 0 0 0 0 0 0 0 0 0 0 0 0 0 0 0 0 0 0 0 0 0 0 0
Wind_Speed
1 1 1 0 0 1 1 2 3 4 4 3 2 1 1 2 4 3 3 7 8 7 8 8 9 10 11 12 13 14 14 14 14 14 15 15 15 15
3 4 3 2 2 2 1 0 1 2 2 1 1 1 1 2 4 3 2 5 5 7 8 9 10 11 12 12 13 14 14 14 15 15 16 16 16 15
5 6 6 5 3 3 3 2 2 0 1 1 2 2 2 2 2 2 2 1 1 6 7 9 11 11 12 13 13 14 14 14 15 15 15 16 16 16
6 6 6 5 5 4 4 4 3 2 1 2 1 1 2 1 1 1 1 1 1 5 8 10 11 11 12 12 13 13 13 14 14 15 15 16 16 16
7 7 6 6 6 5 5 4 3 3 3 3 2 2 1 1 1 1 0 0 2 4 7 9 10 11 12 12 12 13 13 13 14 15 15 16 16 17
8 7 6 6 5 5 5 5 4 4 4 3 2 2 1 1 1 1 1 1 2 2 4 6 8 10 11 12 13 13 13 13 14 15 15 15 16 16
8 7 7 8 8 6 5 4 3 3 3 3 2 2 1 1 1 1 1 1 2 1 2 2 3 4 5 9 11 13 13 14 14 14 15 15 16 16
7 6 6 8 9 10 9 7 5 3 2 1 1 1 1 1 0 0 0 1 3 2 2 4 3 4 4 4 10 13 13 13 13 14 14 15 15 16
5 4 4 5 7 5 7 9 8 7 4 2 1 1 1 1 1 1 1 2 3 3 2 4 2 4 4 6 12 13 12 12 12 12 13 14 15 16
4 4 4 3 3 4 4 4 4 4 4 2 1 2 3 3 3 3 3 3 3 3 2 3 3 3 4 4 10 10 9 9 10 12 13 14 15 16
3 3 3 2 4 5 3 3 3 4 5 5 4 3 5 6 3 1 1 1 3 3 1 2 3 4 4 3 4 7 8 11 13 14 14 15 15 15
3 3 4 2 4 4 2 1 2 3 3 4 5 6 5 5 6 1 1 2 2 3 2 1 2 3 5 3 2 3 5 11 13 14 16 16 16 9
1 1 2 5 5 5 2 1 3 2 0 2 2 3 3 2 2 2 1 3 3 4 2 1 2 2 3 6 4 4 4 4 5 8 14 15 15 11
0 1 3 5 5 5 3 4 5 3 1 1 2 2 2 2 2 3 3 3 5 6 5 4 4 4 5 6 7 5 3 5 6 7 5 10 12 14
1 4 4 5 4 3 5 5 3 1 1 1 2 2 2 3 3 3 4 4 5 6 6 6 7 6 6 7 7 7 7 5 5 5 4 5 6 6
2 3 5 5 3 3 3 3 2 1 1 2 2 3 3 3 3 3 3 4 4 4 5 6 7 7 7 9 9 10 7 6 5 5 6 7 7 7
1 0 1 1 2 2 2 2 2 2 2 2 2 3 4 4 4 3 3 4 4 6 6 4 5 7 9 9 10 11 10 9 9 8 7 9 8 7
1 0 1 1 2 2 2 2 2 2 2 3 3 3 4 5 5 4 4 5 6 7 7 6 5 5 5 7 13 11 9 9 8 7 7 9 11 7
1 1 2 2 3 3 3 3 3 3 3 3 4 4 5 5 5 5 5 5 6 7 7 6 5 6 8 9 7 10 8 8 8 8 8 9 11 9
2 3 3 3 3 3 3 3 3 4 3 4 4 5 5 5 6 6 6 7 7 8 8 6 5 6 8 9 9 8 12 11 9 10 10 9 10 14
3 3 4 3 3 3 4 4 4 4 5 4 5 5 5 6 6 6 7 11 10 8 9 9 8 12 8 7 9 10 8 12 14 11 10 11 12 11
4 4 4 4 4 4 4 4 4 5 5 5 5 5 5 6 7 8 8 8 8 8 10 10 8 7 7 9 12 14 14 11 12 20 21 19 12 8
5 4 4 4 4 4 4 5 6 5 5 5 6 6 6 7 7 8 9 9 9 10 10 10 9 8 9 10 12 12 15 14 10 9 10 16 22 25
Wind_Direction
312 288 242 346 189 216 208 199 213 240 243 207 181 103 140 138 166 152 152 193 203 220 240 259 270 276 276 275 279 280 281 282 283 282 281 280 280 280
47 60 55 45 43 38 38 39 224 230 249 98 95 61 89 126 151 121 141 183 214 236 251 261 268 271 274 278 278 277 279 280 280 280 280 280 280 280
56 65 62 56 56 46 47 48 40 67 209 85 69 59 72 97 106 114 133 159 245 260 268 272 274 276 276 277 277 278 279 280 281 280 281 281 281 281
64 70 69 69 64 53 55 54 48 39 107 125 90 77 79 119 106 118 143 187 229 265 273 276 279 280 281 282 282 282 282 281 280 279 280 280 280 280
62 68 68 72 69 61 59 56 48 46 55 96 84 60 63 75 84 69 57 342 270 275 279 283 288 289 290 290 289 289 288 286 283 281 279 278 278 278
63 65 64 69 76 73 66 58 56 55 57 71 71 59 54 56 66 40 337 326 291 290 293 297 299 301 301 299 297 296 293 287 283 280 277 276 275 275
63 57 62 74 83 82 81 70 64 60 56 58 59 48 34 32 21 9 329 330 298 292 304 293 297 290 293 295 295 290 285 283 282 281 280 278 278 277
65 54 53 52 58 62 71 72 73 74 75 72 58 50 353 337 355 2 348 3 309 299 315 289 274 274 272 262 279 285 285 286 286 286 285 285 283 282
66 58 55 53 54 45 48 45 38 41 56 120 138 201 232 232 208 256 245 231 245 268 300 284 272 273 269 277 291 291 291 291 290 291 292 290 288 285
66 69 65 37 56 69 59 42 24 13 16 62 185 225 230 231 215 214 226 250 261 258 217 271 289 277 283 281 292 292 295 302 304 302 300 296 293 289
52 59 71 33 31 58 66 39 13 347 355 4 350 324 308 311 295 222 269 299 301 286 225 246 293 300 289 282 291 305 313 314 309 304 301 298 294 291
39 23 19 21 11 35 94 58 339 309 323 343 352 353 353 344 348 359 195 205 257 287 274 257 290 329 314 289 263 271 287 294 297 301 302 299 294 289
56 2 328 345 349 347 359 229 276 297 314 330 326 329 336 342 346 346 210 186 211 249 265 272 268 246 260 293 288 254 253 266 279 285 294 292 288 283
153 280 289 317 333 338 336 305 321 2 22 328 322 319 320 315 309 304 285 252 234 244 250 238 252 251 269 280 282 284 270 257 264 275 269 282 284 286
262 295 308 323 344 342 326 338 13 22 335 314 303 291 281 283 294 299 293 279 269 258 251 238 243 257 260 268 276 284 297 287 263 260 263 261 266 270
315 323 343 355 7 348 349 3 2 304 278 265 278 282 291 294 297 298 296 301 295 284 260 246 241 243 258 261 268 277 275 275 281 268 270 274 267 256
259 305 350 349 346 337 330 323 321 329 329 300 292 299 302 302 298 293 287 290 282 289 294 275 248 241 245 257 267 267 270 269 268 273 276 280 273 259
275 238 279 289 289 295 301 304 301 301 301 298 293 290 294 295 294 289 283 282 284 285 286 288 289 288 272 255 240 256 262 265 269 267 262 277 282 268
234 243 256 265 270 276 277 278 283 287 286 283 282 281 283 283 284 286 285 283 281 281 280 279 276 279 287 290 268 232 245 267 275 276 270 267 276 279
230 241 251 257 260 264 266 272 278 283 279 277 276 276 277 279 279 279 279 277 281 283 282 272 260 257 265 278 282 272 255 259 268 274 277 274 271 275
245 246 246 249 252 255 258 263 268 272 273 273 271 271 271 273 274 274 276 281 284 282 282 279 267 275 274 272 274 274 267 254 255 261 272 279 284 283
244 246 247 245 246 249 253 257 263 265 270 269 270 270 269 268 272 274 275 276 276 275 277 279 278 275 265 267 273 281 286 281 268 268 265 263 269 273
242 244 246 247 246 245 247 252 256 260 261 263 266 267 268 269 270 271 273 274 276 277 280 283 282 274 269 269 273 278 282 286 286 281 271 265 264 265